Regional Weather Roundup
Issued by NWS

Home | Current Version | Previous Version | Graphics & Text | Print | Product List | Glossary On
Versions: 1 2 3 4 5 6 7 8 9 10 11 12 13 14 15 16 17 18 19 20 21 22 23 24 25 26 27 28 29 30 31 32 33 34 35 36 37 38 39 40 41 42 43 44 45 46 47 48 49 50
000
ASUS43 KOAX 020602
RWRNE
WEATHER ROUNDUP FOR NEBRASKA
NATIONAL WEATHER SERVICE OMAHA NE
100 AM CDT TUE JUN 02 2015

NOTES: SATELLITE DATA IS BEING USED TO AUGMENT CLOUD COVER ABOVE
       12000 FEET.
       "FAIR" INDICATES FEW OR NO CLOUDS BELOW 12,000 FEET WITH NO
       SIGNIFICANT WEATHER AND/OR OBSTRUCTIONS TO VISIBILITY.

  * THESE STATIONS DO NOT REPORT WEATHER SUCH AS RAIN...SNOW OR FOG.

NEZ001>004-019>022-054>056-020700-
NEBRASKA PANHANDLE

CITY           SKY/WX    TMP DP  RH WIND       PRES   REMARKS
SCOTTSBLUFF    CLOUDY    60  55  83 NE3       29.98R
6HR MIN TEMP:  59; 6HR MAX TEMP:  72; 6HR PCP: TRACE;

ALLIANCE       CLOUDY    60  56  86 S8        29.94R
6HR MIN TEMP:  60; 6HR MAX TEMP:  73; 6HR PCP:  0.37;

CHADRON        CLOUDY    67  52  58 S12       29.89F
6HR MIN TEMP:  66; 6HR MAX TEMP:  77;

SIDNEY         CLOUDY    58  54  86 SE14      29.98F
6HR MIN TEMP:  55; 6HR MAX TEMP:  76; 6HR PCP:  0.92;

$$

NEZ057>060-069>072-079>082-020700-
SOUTHWEST NEBRASKA

CITY           SKY/WX    TMP DP  RH WIND       PRES   REMARKS
NORTH PLATTE   LGT RAIN  63  57  81 NW9       30.02F
6HR MIN TEMP:  61; 6HR MAX TEMP:  76; 6HR PCP:  0.32;

IMPERIAL       TSTM      59  57  93 S7        30.05R
6HR MIN TEMP:  59; 6HR MAX TEMP:  81; 6HR PCP:  0.81;

MCCOOK         CLOUDY    67  56  67 N26G32    30.03R
6HR MIN TEMP:  66; 6HR MAX TEMP:  81;

$$

NEZ005>010-023>029-035>040-094-020700-
NORTH CENTRAL NEBRASKA

CITY           SKY/WX    TMP DP  RH WIND       PRES   REMARKS
VALENTINE      CLOUDY    67  60  78 S15G25    29.87F
6HR MIN TEMP:  67; 6HR MAX TEMP:  80;

AINSWORTH      CLOUDY    65  60  84 S18G24    29.91F
BROKEN BOW     CLOUDY    64  58  80 W16       30.05R
6HR MIN TEMP:  63; 6HR MAX TEMP:  74;

ORD            CLOUDY    64  57  78 SE8       29.99S
6HR MIN TEMP:  63; 6HR MAX TEMP:  74;

$$

NEZ041-046>049-061>064-073>077-083>087-020700-
SOUTH CENTRAL NEBRASKA

CITY           SKY/WX    TMP DP  RH WIND       PRES   REMARKS
GRAND ISLAND   MOCLDY    65  55  70 S14       30.02F
6HR MIN TEMP:  65; 6HR MAX TEMP:  73;

HASTINGS       CLOUDY    64  55  72 S14       30.02F
6HR MIN TEMP:  64; 6HR MAX TEMP:  72;

KEARNEY *      CLOUDY    63  55  77 S12       30.01F
$$

NEZ011>018-030>034-042>045-020700-
NORTHEAST NEBRASKA

CITY           SKY/WX    TMP DP  RH WIND       PRES   REMARKS
NORFOLK        MOCLDY    63  53  70 S13       30.01F
6HR MIN TEMP:  63; 6HR MAX TEMP:  76;

COLUMBUS *     MOCLDY    63  52  67 S10       30.05S
TEKAMAH        CLEAR     61  51  70 S10       30.05F
6HR MIN TEMP:  61; 6HR MAX TEMP:  76;

$$

NEZ050>053-065>068-078-088>093-020700-
SOUTHEAST NEBRASKA

CITY           SKY/WX    TMP DP  RH WIND       PRES   REMARKS
LINCOLN        PTCLDY    61  55  81 S12       30.05F
6HR MIN TEMP:  61; 6HR MAX TEMP:  74;

OMAHA EPPLEY   PTCLDY    62  54  74 S10       30.08S
6HR MIN TEMP:  62; 6HR MAX TEMP:  74;

FALLS CITY     CLEAR     56  52  86 SE9       30.10F
6HR MIN TEMP:  55; 6HR MAX TEMP:  70;

$$

NEZ044-045-051>053-067-020700-
OMAHA AREA

CITY           SKY/WX    TMP DP  RH WIND       PRES   REMARKS
OMAHA EPPLEY   PTCLDY    62  54  74 S10       30.08S
6HR MIN TEMP:  62; 6HR MAX TEMP:  74;

OFFUTT AFB     CLEAR     59  54  84 SE8       30.07F
$$


USA.gov is the U.S. government's official web portal to all federal, state and local government web resources and services.